• In Netherlands
  • List of Countries
  • For 7 days
  • Water Temperature
  • Satellite Maps
  • Weather Map
  • Weather Widgets
  • user-avatar
    Login

    Hourly Weather Gjirokaster

    Today, 28 July, Friday

    Time Temperature Precipitation Wind Pressure Humidity
    00:00 +12°C° 0 mm 2 mps 649 mmHg 66%
    01:00 +12°C° 0 mm 2 mps 649 mmHg 65%
    02:00 +12°C° 0 mm 2 mps 649 mmHg 65%
    03:00 +10°C° 0 mm 2 mps 649 mmHg 66%
    04:00 +10°C° 0 mm 2 mps 649 mmHg 66%
    05:00 +13°C° 0 mm 2 mps 650 mmHg 62%
    06:00 +15°C° 0 mm 2 mps 651 mmHg 59%
    07:00 +17°C° 0 mm 2 mps 651 mmHg 56%
    08:00 +18°C° 0 mm 3 mps 652 mmHg 51%
    09:00 +20°C° 0 mm 4 mps 652 mmHg 47%
    10:00 +21°C° 0 mm 4 mps 653 mmHg 42%
    11:00 +22°C° 0 mm 4 mps 653 mmHg 40%
    12:00 +23°C° 0 mm 5 mps 653 mmHg 39%
    13:00 +23°C° 0 mm 5 mps 653 mmHg 38%
    14:00 +23°C° 0 mm 5 mps 653 mmHg 38%
    15:00 +23°C° 0 mm 5 mps 654 mmHg 38%
    16:00 +23°C° 0 mm 5 mps 654 mmHg 38%
    17:00 +21°C° 0 mm 4 mps 653 mmHg 44%
    18:00 +19°C° 0 mm 3 mps 653 mmHg 49%
    19:00 +17°C° 0 mm 2 mps 653 mmHg 54%
    20:00 +16°C° 0 mm 2 mps 653 mmHg 55%
    21:00 +15°C° 0 mm 2 mps 653 mmHg 56%
    22:00 +14°C° 0 mm 2 mps 653 mmHg 57%
    23:00 +14°C° 0 mm 2 mps 653 mmHg 57%

    Tomorrow, 29 July, Saturday

    Time Temperature Precipitation Wind Pressure Humidity
    00:00 +14°C° 0 mm 2 mps 653 mmHg 56%
    01:00 +14°C° 0 mm 2 mps 653 mmHg 56%
    02:00 +14°C° 0 mm 2 mps 653 mmHg 56%
    03:00 +14°C° 0 mm 2 mps 653 mmHg 55%
    04:00 +14°C° 0 mm 2 mps 653 mmHg 55%
    05:00 +15°C° 0 mm 1 mps 654 mmHg 52%
    06:00 +18°C° 0 mm 1 mps 655 mmHg 49%
    07:00 +20°C° 0 mm 1 mps 655 mmHg 46%
    08:00 +22°C° 0 mm 1 mps 656 mmHg 42%
    09:00 +24°C° 0 mm 1 mps 657 mmHg 39%
    10:00 +26°C° 0 mm 1 mps 657 mmHg 35%
    11:00 +27°C° 0 mm 2 mps 657 mmHg 34%
    12:00 +27°C° 0 mm 2 mps 657 mmHg 32%
    13:00 +28°C° 0 mm 3 mps 657 mmHg 31%
    14:00 +28°C° 0 mm 3 mps 657 mmHg 33%
    15:00 +27°C° 0 mm 3 mps 657 mmHg 35%
    16:00 +27°C° 0 mm 3 mps 656 mmHg 36%
    17:00 +25°C° 0 mm 3 mps 656 mmHg 42%
    18:00 +23°C° 0 mm 2 mps 656 mmHg 48%
    19:00 +20°C° 0 mm 2 mps 655 mmHg 54%
    20:00 +20°C° 0 mm 1 mps 655 mmHg 56%
    21:00 +19°C° 0 mm 1 mps 655 mmHg 57%
    22:00 +19°C° 0 mm 1 mps 655 mmHg 59%
    23:00 +18°C° 0 mm 1 mps 655 mmHg 60%

    Day after tomorrow, 30 July, Sunday

    Time Temperature Precipitation Wind Pressure Humidity
    00:00 +18°C° 0 mm 1 mps 655 mmHg 60%
    01:00 +18°C° 0 mm 1 mps 655 mmHg 61%
    02:00 +18°C° 0 mm 1 mps 655 mmHg 61%
    03:00 +16°C° 0 mm 1 mps 655 mmHg 61%
    04:00 +16°C° 0 mm 1 mps 655 mmHg 62%
    05:00 +19°C° 0 mm 1 mps 655 mmHg 58%
    06:00 +21°C° 0 mm 1 mps 656 mmHg 54%
    07:00 +22°C° 0 mm 1 mps 656 mmHg 50%
    08:00 +24°C° 0 mm 1 mps 656 mmHg 45%
    09:00 +26°C° 0 mm 1 mps 657 mmHg 40%
    10:00 +28°C° 0 mm 1 mps 657 mmHg 35%
    11:00 +29°C° 0 mm 2 mps 657 mmHg 34%
    12:00 +29°C° 0 mm 2 mps 657 mmHg 33%
    13:00 +30°C° 0 mm 3 mps 657 mmHg 32%
    14:00 +29°C° 0 mm 3 mps 656 mmHg 34%
    15:00 +28°C° 0 mm 3 mps 656 mmHg 37%
    16:00 +27°C° 0 mm 3 mps 656 mmHg 39%
    17:00 +26°C° 0 mm 2 mps 655 mmHg 43%
    18:00 +24°C° 0 mm 2 mps 655 mmHg 48%
    19:00 +21°C° 0 mm 2 mps 655 mmHg 52%
    20:00 +20°C° 0 mm 2 mps 655 mmHg 54%
    21:00 +20°C° 0 mm 2 mps 655 mmHg 55%
    22:00 +20°C° 0 mm 1 mps 655 mmHg 57%
    23:00 +20°C° 0 mm 1 mps 655 mmHg 58%

    31 July, Monday

    Time Temperature Precipitation Wind Pressure Humidity
    00:00 +19°C° 0 mm 1 mps 655 mmHg 59%
    01:00 +19°C° 0 mm 1 mps 654 mmHg 59%
    02:00 +18°C° 0 mm 2 mps 654 mmHg 60%
    03:00 +18°C° 0 mm 2 mps 654 mmHg 61%
    04:00 +17°C° 0 mm 2 mps 654 mmHg 61%
    05:00 +19°C° 0 mm 2 mps 654 mmHg 58%
    06:00 +21°C° 0 mm 1 mps 655 mmHg 54%
    07:00 +23°C° 0 mm 1 mps 655 mmHg 50%
    08:00 +25°C° 0 mm 1 mps 656 mmHg 45%
    09:00 +27°C° 0 mm 2 mps 656 mmHg 41%
    10:00 +29°C° 0 mm 2 mps 657 mmHg 36%
    11:00 +29°C° 0 mm 2 mps 657 mmHg 34%
    12:00 +30°C° 0 mm 3 mps 656 mmHg 33%
    13:00 +30°C° 0 mm 3 mps 656 mmHg 31%
    14:00 +29°C° 0 mm 3 mps 656 mmHg 34%
    15:00 +29°C° 0 mm 3 mps 656 mmHg 36%
    16:00 +28°C° 0 mm 3 mps 655 mmHg 39%
    17:00 +26°C° 0 mm 3 mps 655 mmHg 44%
    18:00 +24°C° 0 mm 3 mps 655 mmHg 49%
    19:00 +23°C° 0 mm 2 mps 654 mmHg 53%
    20:00 +21°C° 0 mm 2 mps 655 mmHg 55%
    21:00 +20°C° 0 mm 2 mps 655 mmHg 56%
    22:00 +19°C° 0 mm 2 mps 655 mmHg 58%
    23:00 +19°C° 0 mm 2 mps 655 mmHg 58%

    1 August, Tuesday

    Time Temperature Precipitation Wind Pressure Humidity
    00:00 +19°C° 0 mm 2 mps 655 mmHg 58%
    01:00 +18°C° 0 mm 2 mps 655 mmHg 58%
    02:00 +18°C° 0 mm 2 mps 655 mmHg 58%
    03:00 +18°C° 0 mm 2 mps 654 mmHg 58%
    04:00 +17°C° 0 mm 2 mps 654 mmHg 58%
    05:00 +20°C° 0 mm 1 mps 655 mmHg 56%
    06:00 +21°C° 0 mm 1 mps 655 mmHg 53%
    07:00 +23°C° 0 mm 1 mps 656 mmHg 50%
    08:00 +24°C° 0 mm 1 mps 656 mmHg 45%
    09:00 +26°C° 0 mm 1 mps 657 mmHg 39%
    10:00 +28°C° 0 mm 2 mps 657 mmHg 34%
    11:00 +29°C° 0 mm 2 mps 657 mmHg 33%
    12:00 +29°C° 0 mm 3 mps 657 mmHg 31%
    13:00 +30°C° 0 mm 3 mps 657 mmHg 29%
    14:00 +30°C° 0 mm 3 mps 657 mmHg 30%
    15:00 +29°C° 0 mm 3 mps 656 mmHg 31%
    16:00 +29°C° 0 mm 3 mps 656 mmHg 32%
    17:00 +27°C° 0 mm 2 mps 656 mmHg 39%
    18:00 +24°C° 0 mm 2 mps 655 mmHg 45%
    19:00 +22°C° 0 mm 1 mps 655 mmHg 51%
    20:00 +21°C° 0 mm 1 mps 655 mmHg 52%
    21:00 +21°C° 0 mm 1 mps 655 mmHg 53%
    22:00 +20°C° 0 mm 1 mps 655 mmHg 54%
    23:00 +19°C° 0 mm 1 mps 655 mmHg 52%

    2 August, Wednesday

    Time Temperature Precipitation Wind Pressure Humidity
    00:00 +19°C° 0 mm 1 mps 655 mmHg 51%
    01:00 +18°C° 0 mm 2 mps 655 mmHg 50%
    02:00 +18°C° 0 mm 1 mps 655 mmHg 49%
    03:00 +18°C° 0 mm 1 mps 655 mmHg 48%
    04:00 +18°C° 0 mm 1 mps 654 mmHg 47%
    05:00 +19°C° 0 mm 1 mps 655 mmHg 45%
    06:00 +21°C° 0 mm 1 mps 655 mmHg 43%
    07:00 +23°C° 0 mm 1 mps 655 mmHg 41%
    08:00 +25°C° 0 mm 1 mps 656 mmHg 37%
    09:00 +26°C° 0 mm 1 mps 656 mmHg 33%
    10:00 +28°C° 0 mm 2 mps 657 mmHg 29%
    11:00 +29°C° 0 mm 2 mps 656 mmHg 27%
    12:00 +30°C° 0 mm 3 mps 656 mmHg 26%
    13:00 +30°C° 0 mm 3 mps 656 mmHg 25%
    14:00 +30°C° 0 mm 3 mps 656 mmHg 26%
    15:00 +30°C° 0 mm 3 mps 656 mmHg 27%
    16:00 +29°C° 0 mm 3 mps 655 mmHg 28%
    17:00 +27°C° 0 mm 3 mps 655 mmHg 34%
    18:00 +25°C° 0 mm 2 mps 655 mmHg 41%
    19:00 +21°C° 0 mm 2 mps 654 mmHg 47%
    20:00 +20°C° 0 mm 2 mps 654 mmHg 47%
    21:00 +20°C° 0 mm 2 mps 654 mmHg 47%
    22:00 +20°C° 0 mm 1 mps 654 mmHg 47%
    23:00 +18°C° 0 mm 2 mps 654 mmHg 46%
    Show more